CAPE
694 667 670 660 697 742 769 800 862 914 960 1007 1241 1395 1520 1617 1588 1661 1708 1708 1681 1788 1850 1876 2119 2277 2415 2459 2516 2518 2596 2595 2608 2654 2688 2650 2637 2666 2728 2662 2473 2209
746 780 869 719 730 752 788 819 859 884 922 934 1073 1270 1401 1506 1547 1614 1644 1669 1715 1770 1800 1897 2042 2212 2341 2435 2424 2490 2506 2502 2566 2617 2714 2732 2631 2586 2649 2671 2588 2412
834 818 794 756 765 786 822 860 874 882 886 902 892 1041 1260 1490 1497 1556 1607 1615 1621 1718 1740 1889 2030 2210 2295 2377 2403 2452 2514 2462 2464 2555 2675 2778 2696 2631 2648 2589 2499 2450
951 938 913 874 834 829 860 879 892 888 876 882 871 824 1118 1434 1457 1522 1583 1935 1603 1657 1755 1860 2044 2156 2295 2366 2395 2419 2455 2498 2479 2485 2642 2755 2750 2666 2674 2680 2652 2608
1041 1032 1008 975 932 903 892 886 908 907 892 874 845 788 1098 1347 1436 1456 1517 1637 1663 1647 1714 1882 2001 2112 2252 2336 2363 2433 2394 2430 2409 2488 2588 2690 2759 2732 2695 2674 2700 2692
1074 1074 1063 1038 1002 980 941 925 918 924 927 894 852 789 888 1161 1373 1421 1443 1488 1603 1630 1690 1815 1990 2118 2203 2334 2363 2398 2426 2398 2404 2394 2470 2562 2637 2706 2713 2708 2723 2699
1086 1092 1093 1066 1032 996 976 958 955 950 936 917 867 824 815 1060 1282 1394 1438 1472 1542 1619 1630 1711 1897 2073 2218 2353 2401 2428 2425 2419 2404 2284 2350 2416 2482 2595 2695 2733 2769 2755
1081 1084 1096 1094 1060 1041 1010 1007 1000 968 952 920 877 863 842 1023 1187 1326 1420 1446 1500 1575 1629 1657 1785 1962 2131 2333 2419 2453 2440 2371 2365 2326 2306 2322 2346 2447 2553 2660 2744 2726
1107 1103 1114 1111 1086 1064 1058 1053 1034 1018 979 920 888 869 1007 1058 1131 1221 1372 1428 1446 1522 1584 1633 1710 1849 2011 2236 2358 2437 2479 2449 2460 2448 2393 2360 2321 2384 2445 2506 2606 2653
1147 1146 1137 1133 1125 1106 1108 1085 1059 1029 1000 934 915 876 1025 1204 1199 1229 1320 1401 1421 1475 1495 1625 1694 1775 1897 2073 2266 2369 2425 2464 2504 2479 2478 2458 2432 2388 2378 2396 2453 2501
1188 1171 1164 1162 1157 1168 1160 1118 1082 1033 978 1008 1084 1026 974 1140 1339 1358 1373 1413 1446 1478 1488 1537 1660 1752 1868 1952 2127 2244 2338 2401 2444 2461 2479 2478 2480 2460 2376 2384 2396 2414
1212 1199 1182 1169 1168 1175 1177 1140 1082 1030 988 982 1117 1193 1179 1139 1250 1409 1498 1526 1542 1563 1554 1535 1573 1686 1812 1921 2009 2136 2258 2333 2383 2424 2426 2449 2452 2450 2419 2365 2378 2369
1189 1194 1179 1159 1159 1152 1133 1110 1079 1039 997 987 1171 1188 1235 1259 1235 1327 1524 1600 1636 1666 1670 1657 1597 1613 1748 1872 1962 2097 2216 2310 2365 2396 2416 2418 2427 2413 2328 2335 2356 2356
1124 1141 1140 1132 1118 1116 1113 1091 1062 1046 1033 1018 1171 1235 1263 1302 1331 1315 1409 1568 1624 1645 1724 1745 1708 1683 1702 1812 1937 2041 2155 2217 2323 2377 2398 2399 2427 2406 2381 2314 2330 2342
1080 1092 1110 1106 1103 1108 1114 1100 1089 1078 1064 1056 1086 1220 1296 1362 1430 1475 1453 1480 1586 1667 1704 1730 1740 1756 1766 1799 1876 2008 2138 2208 2258 2333 2398 2424 2434 2404 2397 2416 2407 2413
1099 1129 1124 1139 1154 1162 1160 1139 1123 1116 1111 1114 1110 1115 1218 1326 1417 1539 1614 1604 1641 1689 1744 1764 1778 1797 1759 1734 1757 1963 2048 2160 2208 2263 2323 2384 2410 2422 2421 2396 2410 2343
1265 1296 1270 1192 1211 1203 1190 1188 1183 1178 1180 1180 1171 1170 1168 1179 1302 1323 1472 1650 1742 1770 1805 1840 1870 1854 1747 1755 1787 1814 1922 2113 2175 2234 2278 2384 2400 2402 2414 2464 2458 2467
1362 1423 1437 1405 1269 1254 1243 1238 1242 1251 1267 1266 1260 1292 1272 1215 1201 1192 1264 1354 1516 1702 1818 1859 1924 1825 1832 1842 1827 1822 1832 1966 2146 2182 2230 2296 2375 2456 2461 2502 2514 2496
1488 1533 1558 1551 1505 1373 1339 1334 1346 1359 1374 1389 1396 1417 1458 1472 1357 1260 1238 1210 1190 1375 1512 1730 1889 1788 1836 1893 1927 1926 1919 1907 1920 2141 2237 2273 2370 2396 2464 2494 2511 2493
1638 1632 1646 1648 1633 1530 1508 1492 1484 1495 1499 1515 1527 1542 1616 1636 1603 1451 1339 1318 1287 1246 1337 1407 1566 1635 1722 1814 1892 1949 1993 2006 1999 1976 2192 2276 2351 2403 2483 2511 2528 2530
1819 1794 1769 1754 1698 1661 1664 1662 1655 1647 1651 1667 1668 1722 1805 1848 1815 1737 1608 1456 1384 1338 1307 1269 1341 1319 1492 1668 1783 1864 1942 2002 2060 2056 2035 2212 2351 2398 2443 2473 2511 2545
1992 1961 1934 1920 1811 1790 1803 1808 1807 1807 1821 1811 1925 2031 2087 2123 2113 2052 1961 1834 1668 1516 1425 1389 1486 1316 1318 1419 1592 1751 1851 1930 2001 2053 2044 2052 2197 2310 2395 2465 2486 2527
2175 2136 2118 2089 1977 1958 1972 1976 1969 1970 1970 2104 2284 2365 2463 2458 2426 2400 2307 2212 2084 1926 1800 1587 1597 1514 1459 1427 1451 1564 1697 1826 1902 1944 1957 1962 1973 2127 2263 2352 2413 2468
2359 2326 2297 2274 2155 2153 2144 2130 2154 2307 2413 2540 2621 2719 2782 2787 2785 2794 2712 2567 2420 2275 2142 1977 1796 1632 1568 1558 1546 1550 1616 1700 1784 1819 1861 1891 1921 1980 2157 2274 2379 2180
2527 2498 2460 2364 2301 2439 2531 2611 2702 2762 2812 2857 2902 2945 2990 3030 3083 3081 3028 2926 2787 2636 2451 2301 2151 1988 1804 1655 1649 1670 1693 1716 1751 1795 1827 1858 1924 1978 2041 2207 2325 2278
2694 2698 2540 2635 2763 2872 2910 2983 3004 3022 3055 3083 3098 3117 3137 3178 3227 3260 3272 3245 3138 2983 2818 2657 2488 2332 2152 1967 1784 1774 1799 1810 1835 1878 1882 1898 1969 2040 2139 2162 2245 2375
Wind_Speed
8 9 8 8 7 6 6 6 8 8 8 8 6 6 6 7 6 6 7 7 8 9 9 10 11 12 12 13 13 13 14 15 14 13 14 14 14 14 13 12 10 9
7 8 10 9 8 8 7 7 9 10 9 8 8 8 8 7 5 5 5 6 7 7 6 7 7 9 9 9 10 10 11 11 13 10 12 13 14 13 14 14 13 10
9 10 9 7 6 5 5 8 11 12 11 9 9 9 9 8 6 5 5 5 6 6 5 4 5 5 5 6 6 6 7 8 10 8 9 11 10 12 12 11 11 11
9 9 9 8 8 7 9 11 12 13 13 12 8 9 9 9 6 5 4 4 5 5 4 3 3 3 3 2 2 3 4 5 5 4 6 6 7 8 9 8 9 9
11 12 12 11 10 10 11 10 11 12 11 10 11 11 10 8 6 6 5 4 4 4 4 3 2 2 1 0 2 1 2 2 2 3 3 4 4 5 5 5 7 9
14 14 14 13 11 11 10 9 11 11 12 12 10 12 9 7 6 5 5 4 5 4 4 3 2 2 1 0 2 1 1 1 2 3 2 3 2 2 1 2 4 7
13 14 14 15 12 10 10 10 12 13 13 13 15 12 11 8 5 4 4 3 3 3 2 2 1 1 2 2 2 1 2 1 2 3 2 1 1 1 1 1 2 4
14 15 15 15 12 11 9 11 12 13 14 15 12 11 10 8 5 5 5 3 4 2 2 1 2 2 3 4 2 1 1 3 2 2 1 1 2 0 1 1 1 2
15 15 15 13 11 11 11 12 14 14 15 14 12 12 10 8 6 5 5 5 4 4 3 3 4 4 5 5 3 2 2 3 3 3 2 1 1 0 1 2 1 1
14 15 14 14 13 13 12 13 16 16 16 13 12 13 11 9 7 7 7 6 5 5 5 5 5 6 7 6 5 4 3 2 3 4 3 3 2 1 2 2 0 1
13 14 14 12 13 15 14 15 15 17 16 13 13 12 10 10 10 9 8 7 6 5 5 6 6 8 8 8 7 6 5 4 4 4 4 4 4 3 3 2 1 2
12 13 13 12 12 13 14 15 15 14 13 15 13 11 11 12 9 10 8 6 6 5 6 7 7 8 8 8 9 9 8 7 6 6 6 6 6 5 4 3 1 1
12 12 13 13 12 13 16 16 15 15 14 14 15 13 13 13 12 10 9 7 6 7 7 8 8 8 9 9 10 10 10 9 8 7 7 8 8 6 5 3 1 0
12 13 14 14 16 17 18 16 15 14 14 15 16 14 13 12 12 10 10 9 8 8 8 9 8 9 10 11 11 11 11 10 9 9 8 8 8 7 5 3 2 1
15 16 17 18 18 19 18 17 16 16 16 16 15 14 15 13 12 11 9 8 9 9 8 8 8 9 11 12 12 10 10 9 9 9 8 8 7 6 5 4 4 3
17 19 19 19 19 18 18 17 18 17 16 15 14 13 14 13 12 10 10 10 10 9 8 8 8 10 10 13 12 10 9 9 8 8 7 6 5 5 5 4 4 4
20 20 21 20 19 20 20 18 16 16 15 15 15 14 13 12 12 10 10 11 10 10 9 9 9 9 10 11 11 10 8 7 7 7 8 6 5 4 5 5 5 5
19 20 20 20 20 19 18 18 17 15 14 14 14 12 13 13 11 10 10 11 11 10 9 9 9 7 9 10 9 9 8 6 7 7 7 6 5 5 6 6 7 8
20 20 19 20 19 18 19 18 15 13 12 12 11 11 12 11 10 10 10 10 10 9 8 9 10 8 9 9 9 9 9 7 5 5 5 4 4 5 6 8 9 9
19 18 18 17 18 18 17 15 13 11 10 12 12 12 11 10 9 9 9 9 9 9 9 10 9 8 10 10 9 10 10 9 5 3 3 3 5 6 7 8 8 7
17 16 16 16 16 15 15 12 11 12 11 12 13 12 11 9 9 9 9 9 10 10 10 10 10 8 9 9 9 10 10 10 7 5 4 4 6 6 7 7 7 5
15 15 14 15 14 14 14 12 12 12 12 14 14 12 12 11 11 11 10 10 10 11 11 9 9 8 9 8 9 9 12 10 7 6 5 4 5 6 6 5 4 3
14 14 13 14 14 14 13 12 12 12 13 15 14 13 12 12 11 11 12 12 12 12 11 10 10 8 9 8 8 11 13 10 9 9 7 6 5 5 5 4 2 1
13 12 12 12 13 11 10 10 10 11 11 14 12 12 12 13 14 14 14 14 12 12 13 14 13 11 10 9 10 13 12 11 10 10 8 7 7 7 7 5 3 3
11 10 10 10 10 8 8 8 9 9 10 13 12 12 13 16 16 16 16 16 16 14 14 14 14 13 11 11 12 14 12 11 12 11 10 9 10 9 8 8 6 6
11 9 9 9 8 8 10 10 12 14 14 14 13 14 14 17 17 18 16 18 18 18 18 17 15 14 14 13 15 15 14 13 14 12 11 10 11 11 10 9 9 9
Wind_Direction
199 186 189 208 213 218 225 209 187 181 174 177 165 153 131 125 137 116 111 110 98 93 85 78 78 76 77 74 71 71 72 73 75 71 67 65 65 59 57 52 50 52
200 191 199 212 215 216 213 208 198 191 187 180 165 161 155 164 150 139 116 106 111 100 94 89 82 74 70 70 68 66 70 70 71 70 67 65 69 64 64 58 54 54
200 198 207 217 221 225 223 213 208 200 197 187 179 175 172 178 179 150 130 120 115 110 108 102 93 83 72 63 56 62 63 61 64 60 62 65 68 67 68 62 60 53
193 198 208 213 216 218 217 218 213 208 205 203 184 182 187 189 186 173 152 133 118 115 127 124 99 104 83 53 23 47 48 54 55 37 50 63 65 70 72 63 64 64
188 194 205 213 214 218 220 218 219 216 210 203 203 204 203 202 197 187 179 157 134 134 140 125 127 118 125 131 332 1 10 38 14 360 22 45 54 54 71 58 57 62
188 194 206 216 218 223 221 219 219 219 214 214 211 217 215 217 207 194 187 174 172 166 163 161 170 173 211 242 275 306 322 350 334 326 355 33 41 16 52 35 52 63
193 199 208 216 221 222 221 221 221 219 218 216 221 220 227 227 218 197 184 173 179 184 176 163 173 218 245 254 270 285 294 323 293 318 3 37 340 348 323 340 29 60
199 204 211 218 224 223 220 224 224 223 224 225 227 224 231 227 221 202 195 197 214 219 228 239 258 281 267 265 272 290 293 266 276 312 344 67 271 277 307 285 322 55
208 210 215 220 224 221 217 221 222 224 227 229 227 226 225 220 211 200 204 219 228 239 256 264 278 276 272 276 288 303 294 275 281 291 306 287 274 246 267 262 267 69
211 213 219 220 218 215 215 217 220 222 225 225 226 225 221 208 201 201 209 221 232 243 259 267 279 279 283 290 307 301 286 292 278 280 277 270 268 238 241 264 341 127
212 214 218 221 216 212 211 216 219 222 221 223 224 220 216 210 198 206 214 223 229 246 261 272 287 292 290 293 294 292 294 279 270 263 256 257 258 247 243 261 250 64
218 216 218 221 218 211 211 215 217 218 217 213 217 214 212 208 205 212 220 223 229 245 263 275 282 288 299 302 299 294 293 284 268 254 242 236 237 238 246 252 250 70
223 220 219 219 215 209 211 213 212 212 212 210 213 211 210 207 210 214 215 223 234 250 266 278 285 291 296 303 303 301 299 290 276 260 242 231 227 228 226 233 245 237
219 219 216 212 209 208 210 211 209 208 207 209 213 210 207 207 213 216 217 227 240 255 267 273 284 289 296 301 301 302 294 287 278 265 251 234 224 222 220 212 227 232
214 212 210 209 207 207 209 209 209 209 211 212 213 209 208 211 216 220 226 235 246 257 265 270 280 290 289 294 299 300 287 280 277 269 260 244 227 215 209 203 205 218
211 207 208 208 207 208 209 210 211 212 212 211 210 207 211 217 221 228 236 243 250 258 260 260 269 274 296 322 312 293 283 269 267 266 262 248 228 207 199 200 196 195
209 205 206 206 206 208 211 213 213 212 209 206 205 208 213 220 228 234 241 246 254 253 253 254 263 277 322 318 323 326 293 274 270 260 255 245 228 201 180 189 181 157
210 210 207 207 210 212 215 217 216 212 206 204 207 213 219 225 231 240 244 250 251 252 251 255 267 299 322 321 322 328 317 287 262 250 245 234 214 200 179 169 146 144
213 213 210 211 213 216 218 220 218 213 208 210 216 224 230 236 241 249 252 255 256 258 258 265 270 305 323 326 324 326 330 310 259 252 242 215 186 174 154 138 133 142
216 215 213 213 216 218 220 220 219 215 215 220 225 232 236 240 249 260 260 259 259 259 257 262 279 304 321 327 326 328 328 310 267 269 229 176 158 160 161 144 133 131
217 214 211 212 214 216 218 216 217 215 222 228 233 240 245 251 257 262 260 258 257 259 257 263 269 306 311 319 322 325 326 309 264 249 218 178 162 159 147 141 140 145
214 209 205 208 211 213 215 214 215 220 227 231 233 234 236 239 243 248 255 258 258 260 261 262 261 299 303 305 310 310 311 279 266 250 232 190 172 166 163 165 165 147
206 205 203 207 213 216 218 219 222 226 229 234 236 236 237 242 245 249 248 250 254 257 262 257 251 273 287 291 290 297 281 262 256 240 230 207 175 182 182 177 196 226
205 205 205 210 218 220 221 220 223 227 234 240 242 241 238 238 239 237 242 247 255 258 259 252 246 252 274 275 284 290 288 265 250 243 233 218 201 202 209 209 228 360
201 201 201 209 216 215 215 218 223 229 234 240 238 238 238 237 238 236 239 244 247 251 259 260 248 247 267 275 283 288 283 254 255 247 239 232 226 222 228 229 241 275
194 196 198 207 210 212 217 220 224 227 234 241 240 240 241 242 244 241 242 242 245 248 251 256 254 248 256 278 283 289 299 268 257 257 249 244 239 238 235 246 256 264